This is the latest recevied weather packets stored in our database for station/object KO4APQ. If no packets are shown the sender has not sent any weather packets the latest 1 day(s).
| Time | Temp. | Humidity | Pressure | Rain* | Wind** | Luminosity | Snow |
|---|---|---|---|---|---|---|---|
| 1836274814 | 19.44° C | 97% | 1019.1 hPa | 0 mm | 0 m/s | 0 W/m² | - |
| 1836274512 | 19.44° C | 97% | 1019.4 hPa | 0 mm | 0 m/s | 0 W/m² | - |
| 1836274365 | 19.44° C | 97% | 1019.4 hPa | 0 mm | 0 m/s | 0 W/m² | - |
| 1836274210 | 19.44° C | 96% | 1019.1 hPa | 0 mm | 0 m/s | 0 W/m² | - |
| 1836273910 | 20° C | 96% | 1019.1 hPa | 0 mm | 0 m/s | 0 W/m² | - |
| 1778060455 | 18.33° C | 60% | 1013.8 hPa | 0 mm | 0.89 m/s, 194° | 0 W/m² | - |
| 1778060153 | 18.33° C | 60% | 1013.7 hPa | 0 mm | 0.89 m/s, 178° | 0 W/m² | - |
| 1778059850 | 18.33° C | 60% | 1013.6 hPa | 0 mm | 0.45 m/s, 167° | 0 W/m² | - |
| 1778059548 | 18.33° C | 61% | 1013.8 hPa | 0 mm | 0.89 m/s, 226° | 0 W/m² | - |
| 1778059244 | 17.78° C | 60% | 1014 hPa | 0 mm | 0.89 m/s, 180° | 0 W/m² | - |
| 1778058943 | 17.78° C | 61% | 1013.6 hPa | 0 mm | 0.45 m/s, 165° | 0 W/m² | - |
| 1778058639 | 17.78° C | 61% | 1013.8 hPa | 0 mm | 0.89 m/s, 207° | 0 W/m² | - |
| 1778058337 | 17.78° C | 61% | 1013.6 hPa | 0 mm | 1.34 m/s, 162° | 0 W/m² | - |
| 1778058033 | 17.78° C | 61% | 1013.9 hPa | 0 mm | 0.89 m/s, 171° | 0 W/m² | - |
| 1778057730 | 17.78° C | 62% | 1013.9 hPa | 0 mm | 0 m/s | 0 W/m² | - |
| 1778057427 | 17.78° C | 62% | 1014 hPa | 0 mm | 0.45 m/s, 182° | 0 W/m² | - |
| 1778057124 | 17.78° C | 62% | 1014 hPa | 0 mm | 0 m/s | 0 W/m² | - |
| 1778056820 | 17.78° C | 61% | 1014.1 hPa | 0 mm | 0 m/s | 0 W/m² | - |
| 1778056517 | 17.78° C | 61% | 1014.1 hPa | 0 mm | 1.79 m/s, 204° | 0 W/m² | - |
| 1778056215 | 17.78° C | 62% | 1014 hPa | 0 mm | 0.89 m/s, 173° | 0 W/m² | - |
| 1778055911 | 18.33° C | 62% | 1014.1 hPa | 0 mm | 0.45 m/s, 143° | 0 W/m² | - |
| 1778055607 | 18.33° C | 62% | 1014.1 hPa | 0 mm | 0.45 m/s, 151° | 0 W/m² | - |
| 1778055305 | 18.33° C | 61% | 1014.1 hPa | 0 mm | 0.45 m/s, 186° | 0 W/m² | - |
| 1778055002 | 18.33° C | 63% | 1014.2 hPa | 0 mm | 0 m/s | 0 W/m² | - |
| 1778054700 | 18.33° C | 62% | 1014.3 hPa | 0 mm | 0 m/s | 0 W/m² | - |
* Rain latest hour (hover to see other rain measurements)
** Current wind speed in m/s (hover to see current wind gust speed)